QPF
0.00 0.00 0.00 0.00 0.00 0.00 0.00 0.00 0.00 0.00 0.00 0.00 0.00 0.00 0.00 0.00 0.00 0.00 0.00 0.00 0.00 0.00 0.00 0.00 0.00 0.00 0.00 0.00 0.00 0.00 0.00 0.00 0.00 0.00 0.01 0.00 0.00 0.00 0.00 0.00 0.00 0.00 0.00 0.00 0.00 0.00 0.01
0.00 0.00 0.00 0.00 0.00 0.00 0.00 0.00 0.00 0.00 0.00 0.00 0.00 0.00 0.00 0.00 0.00 0.00 0.00 0.00 0.00 0.00 0.00 0.00 0.00 0.00 0.00 0.00 0.00 0.00 0.00 0.00 0.00 0.00 0.01 0.00 0.00 0.00 0.00 0.00 0.00 0.00 0.00 0.00 0.00 0.00 0.00
0.00 0.00 0.00 0.00 0.00 0.00 0.00 0.00 0.00 0.00 0.00 0.00 0.00 0.00 0.00 0.00 0.00 0.00 0.00 0.00 0.00 0.00 0.00 0.00 0.00 0.00 0.00 0.00 0.00 0.00 0.00 0.00 0.00 0.00 0.00 0.00 0.00 0.00 0.00 0.00 0.00 0.00 0.00 0.00 0.00 0.00 0.00
0.00 0.00 0.00 0.00 0.00 0.00 0.00 0.00 0.00 0.00 0.00 0.00 0.00 0.00 0.00 0.00 0.00 0.00 0.00 0.00 0.00 0.00 0.00 0.00 0.00 0.00 0.00 0.00 0.00 0.00 0.00 0.00 0.00 0.00 0.00 0.00 0.00 0.00 0.00 0.00 0.00 0.00 0.00 0.00 0.00 0.00 0.00
0.00 0.00 0.00 0.00 0.00 0.00 0.00 0.00 0.00 0.00 0.00 0.00 0.00 0.00 0.00 0.00 0.00 0.00 0.00 0.00 0.00 0.00 0.00 0.00 0.00 0.00 0.00 0.00 0.00 0.00 0.00 0.00 0.00 0.00 0.00 0.00 0.00 0.00 0.00 0.00 0.00 0.00 0.00 0.00 0.00 0.00 0.00
0.00 0.00 0.00 0.00 0.00 0.00 0.00 0.00 0.00 0.00 0.00 0.00 0.00 0.00 0.00 0.00 0.00 0.00 0.00 0.00 0.00 0.00 0.00 0.00 0.00 0.00 0.00 0.00 0.00 0.00 0.00 0.00 0.00 0.00 0.00 0.00 0.00 0.00 0.00 0.00 0.00 0.00 0.00 0.00 0.00 0.00 0.00
0.00 0.00 0.00 0.00 0.00 0.00 0.00 0.00 0.00 0.00 0.00 0.00 0.00 0.00 0.00 0.00 0.00 0.00 0.00 0.00 0.00 0.00 0.00 0.00 0.00 0.00 0.00 0.00 0.00 0.00 0.00 0.00 0.00 0.00 0.00 0.00 0.00 0.00 0.00 0.00 0.00 0.00 0.00 0.00 0.00 0.00 0.00
0.00 0.00 0.00 0.00 0.00 0.00 0.00 0.00 0.00 0.00 0.00 0.00 0.00 0.00 0.00 0.00 0.00 0.00 0.00 0.00 0.00 0.00 0.00 0.00 0.00 0.00 0.00 0.00 0.00 0.00 0.00 0.00 0.00 0.00 0.00 0.00 0.00 0.00 0.00 0.00 0.00 0.00 0.00 0.00 0.00 0.00 0.00
0.00 0.00 0.00 0.00 0.00 0.00 0.00 0.00 0.00 0.00 0.00 0.00 0.00 0.00 0.00 0.00 0.00 0.00 0.00 0.00 0.00 0.00 0.00 0.00 0.00 0.00 0.00 0.00 0.00 0.00 0.00 0.00 0.00 0.00 0.00 0.00 0.00 0.00 0.00 0.00 0.00 0.00 0.00 0.00 0.00 0.00 0.00
0.00 0.00 0.00 0.00 0.00 0.00 0.00 0.00 0.00 0.00 0.00 0.00 0.00 0.00 0.00 0.00 0.00 0.00 0.00 0.00 0.00 0.00 0.00 0.00 0.00 0.00 0.00 0.00 0.00 0.00 0.00 0.00 0.00 0.00 0.00 0.00 0.00 0.00 0.00 0.00 0.00 0.00 0.00 0.00 0.00 0.00 0.00
0.00 0.00 0.00 0.00 0.00 0.00 0.00 0.00 0.00 0.00 0.00 0.00 0.00 0.00 0.00 0.00 0.00 0.00 0.00 0.00 0.00 0.00 0.00 0.00 0.00 0.00 0.00 0.00 0.00 0.00 0.00 0.00 0.00 0.00 0.00 0.00 0.00 0.00 0.00 0.00 0.00 0.00 0.00 0.00 0.00 0.00 0.00
0.00 0.00 0.00 0.00 0.00 0.00 0.00 0.00 0.00 0.00 0.00 0.00 0.00 0.00 0.00 0.00 0.00 0.00 0.00 0.00 0.00 0.00 0.00 0.00 0.00 0.00 0.00 0.00 0.00 0.00 0.00 0.00 0.00 0.00 0.00 0.00 0.00 0.00 0.00 0.00 0.00 0.00 0.00 0.00 0.00 0.00 0.00
0.00 0.00 0.00 0.00 0.00 0.00 0.00 0.00 0.00 0.00 0.00 0.00 0.00 0.00 0.00 0.00 0.00 0.00 0.00 0.00 0.00 0.00 0.00 0.00 0.00 0.00 0.00 0.00 0.00 0.00 0.00 0.00 0.00 0.00 0.00 0.00 0.00 0.00 0.00 0.00 0.00 0.00 0.00 0.00 0.00 0.00 0.00
0.00 0.00 0.00 0.00 0.00 0.00 0.00 0.00 0.00 0.00 0.00 0.00 0.00 0.00 0.00 0.00 0.00 0.00 0.00 0.00 0.00 0.00 0.00 0.00 0.00 0.00 0.00 0.00 0.00 0.00 0.00 0.00 0.00 0.00 0.00 0.00 0.00 0.00 0.00 0.00 0.00 0.00 0.00 0.00 0.00 0.00 0.00
0.00 0.00 0.00 0.00 0.00 0.00 0.00 0.00 0.00 0.00 0.00 0.00 0.00 0.00 0.00 0.00 0.00 0.00 0.00 0.00 0.00 0.00 0.00 0.00 0.00 0.00 0.00 0.00 0.00 0.00 0.00 0.00 0.00 0.00 0.00 0.00 0.00 0.00 0.00 0.00 0.00 0.00 0.00 0.00 0.00 0.00 0.00
0.00 0.00 0.00 0.00 0.00 0.00 0.00 0.00 0.00 0.00 0.00 0.00 0.00 0.00 0.00 0.00 0.00 0.00 0.00 0.00 0.00 0.00 0.00 0.00 0.00 0.00 0.00 0.00 0.00 0.00 0.00 0.00 0.00 0.00 0.00 0.00 0.00 0.00 0.00 0.00 0.00 0.00 0.00 0.00 0.00 0.00 0.00
0.00 0.00 0.00 0.00 0.00 0.00 0.00 0.00 0.00 0.00 0.00 0.00 0.00 0.00 0.00 0.00 0.00 0.00 0.00 0.00 0.00 0.00 0.00 0.00 0.00 0.00 0.00 0.00 0.00 0.00 0.00 0.00 0.00 0.00 0.00 0.00 0.00 0.00 0.00 0.00 0.00 0.00 0.00 0.00 0.00 0.00 0.00
0.00 0.00 0.00 0.00 0.00 0.00 0.00 0.00 0.00 0.00 0.00 0.00 0.00 0.00 0.00 0.00 0.00 0.00 0.00 0.00 0.00 0.00 0.00 0.00 0.00 0.00 0.00 0.00 0.00 0.00 0.00 0.00 0.00 0.00 0.00 0.00 0.00 0.00 0.00 0.00 0.00 0.00 0.00 0.00 0.00 0.00 0.00
0.00 0.00 0.00 0.00 0.00 0.00 0.00 0.00 0.00 0.00 0.00 0.00 0.00 0.00 0.00 0.00 0.00 0.00 0.00 0.00 0.00 0.00 0.00 0.00 0.00 0.00 0.00 0.00 0.00 0.00 0.00 0.00 0.00 0.00 0.00 0.00 0.00 0.00 0.00 0.00 0.00 0.00 0.00 0.00 0.00 0.00 0.00
0.00 0.00 0.00 0.00 0.00 0.00 0.00 0.00 0.00 0.00 0.00 0.00 0.00 0.00 0.00 0.00 0.00 0.00 0.00 0.00 0.00 0.00 0.00 0.00 0.00 0.00 0.00 0.00 0.00 0.00 0.00 0.00 0.00 0.00 0.00 0.00 0.00 0.00 0.00 0.00 0.00 0.00 0.00 0.00 0.00 0.00 0.00
0.00 0.00 0.00 0.00 0.00 0.00 0.00 0.00 0.00 0.00 0.00 0.00 0.00 0.00 0.00 0.00 0.00 0.00 0.00 0.00 0.00 0.00 0.00 0.00 0.00 0.00 0.00 0.00 0.00 0.00 0.00 0.00 0.00 0.00 0.00 0.00 0.00 0.00 0.00 0.00 0.00 0.00 0.00 0.00 0.00 0.00 0.00
0.00 0.00 0.00 0.00 0.00 0.00 0.00 0.00 0.00 0.00 0.00 0.00 0.00 0.00 0.00 0.00 0.00 0.00 0.00 0.00 0.00 0.00 0.00 0.00 0.00 0.00 0.00 0.00 0.00 0.00 0.00 0.00 0.00 0.00 0.00 0.00 0.00 0.00 0.00 0.00 0.00 0.00 0.00 0.00 0.00 0.00 0.00
0.00 0.00 0.00 0.00 0.00 0.00 0.00 0.00 0.00 0.00 0.00 0.00 0.00 0.00 0.00 0.00 0.00 0.00 0.00 0.00 0.00 0.00 0.00 0.00 0.00 0.00 0.00 0.00 0.00 0.00 0.00 0.00 0.00 0.00 0.00 0.00 0.00 0.00 0.00 0.00 0.00 0.00 0.00 0.00 0.00 0.00 0.00
0.00 0.00 0.00 0.00 0.00 0.00 0.00 0.00 0.00 0.00 0.00 0.00 0.00 0.00 0.00 0.00 0.00 0.00 0.00 0.00 0.00 0.00 0.00 0.00 0.00 0.00 0.00 0.00 0.00 0.00 0.00 0.00 0.00 0.00 0.00 0.00 0.00 0.00 0.00 0.00 0.00 0.00 0.00 0.00 0.00 0.00 0.00
0.00 0.00 0.00 0.00 0.00 0.00 0.00 0.00 0.00 0.00 0.00 0.00 0.00 0.00 0.00 0.00 0.00 0.00 0.00 0.00 0.00 0.00 0.00 0.00 0.00 0.00 0.00 0.00 0.00 0.00 0.00 0.00 0.00 0.00 0.00 0.00 0.00 0.00 0.00 0.00 0.00 0.00 0.00 0.00 0.00 0.00 0.00
0.00 0.00 0.00 0.00 0.00 0.00 0.00 0.00 0.00 0.00 0.00 0.00 0.00 0.00 0.00 0.00 0.00 0.00 0.00 0.00 0.00 0.00 0.00 0.00 0.00 0.00 0.00 0.00 0.00 0.00 0.00 0.00 0.00 0.00 0.00 0.00 0.00 0.00 0.00 0.00 0.00 0.00 0.00 0.00 0.00 0.00 0.00
0.00 0.00 0.00 0.00 0.00 0.00 0.00 0.00 0.00 0.00 0.00 0.00 0.00 0.00 0.00 0.00 0.00 0.00 0.00 0.00 0.00 0.00 0.00 0.00 0.00 0.00 0.00 0.00 0.00 0.00 0.00 0.00 0.00 0.00 0.00 0.00 0.00 0.00 0.00 0.00 0.00 0.00 0.00 0.00 0.00 0.00 0.00
0.00 0.00 0.00 0.00 0.00 0.00 0.00 0.00 0.00 0.00 0.00 0.00 0.00 0.00 0.00 0.00 0.00 0.00 0.00 0.00 0.00 0.00 0.00 0.00 0.00 0.00 0.00 0.00 0.00 0.00 0.00 0.00 0.00 0.00 0.00 0.00 0.00 0.00 0.00 0.00 0.00 0.00 0.00 0.00 0.00 0.00 0.00
0.00 0.00 0.00 0.00 0.00 0.00 0.00 0.00 0.00 0.00 0.00 0.00 0.00 0.00 0.00 0.00 0.00 0.00 0.00 0.00 0.00 0.00 0.00 0.00 0.00 0.00 0.00 0.00 0.00 0.00 0.00 0.00 0.00 0.00 0.00 0.00 0.00 0.00 0.00 0.00 0.00 0.00 0.00 0.00 0.00 0.00 0.00
MSLP
1022.76 1022.59 1022.33 1022.13 1021.91 1021.71 1021.52 1021.32 1021.08 1020.88 1020.68 1020.62 1020.39 1020.21 1020.04 1019.86 1019.65 1019.35 1019.02 1018.66 1018.34 1018.04 1017.77 1017.47 1016.98 1016.39 1016.11 1016.16 1015.72 1014.74 1014.50 1014.21 1014.00 1014.05 1014.09 1014.09 1014.14 1014.29 1014.50 1014.32 1013.99 1013.58 1012.92 1012.20 1011.78 1011.10 1010.83
1022.85 1022.72 1022.44 1022.17 1022.04 1021.74 1021.60 1021.37 1021.09 1020.86 1020.63 1020.52 1020.36 1020.15 1019.94 1019.75 1019.48 1019.25 1018.92 1018.55 1018.22 1017.99 1017.70 1017.42 1017.00 1016.51 1016.52 1016.20 1015.23 1014.98 1014.76 1014.33 1014.26 1014.25 1014.27 1014.21 1014.37 1014.38 1014.40 1014.27 1014.17 1013.69 1013.05 1012.46 1011.76 1011.37 1011.10
1022.85 1022.76 1022.57 1022.32 1022.12 1021.83 1021.59 1021.38 1021.16 1020.93 1020.67 1020.49 1020.36 1020.13 1019.91 1019.57 1019.32 1019.02 1018.80 1018.45 1018.07 1017.88 1017.71 1017.41 1017.13 1016.89 1016.80 1015.96 1015.19 1015.00 1014.73 1014.52 1014.32 1014.37 1014.39 1014.29 1014.33 1014.42 1014.45 1014.36 1014.16 1013.69 1013.29 1012.59 1012.03 1011.58 1011.33
1022.89 1022.76 1022.62 1022.44 1022.20 1021.99 1021.70 1021.42 1021.21 1021.01 1020.69 1020.50 1020.34 1020.16 1019.96 1019.61 1019.14 1018.80 1018.60 1018.35 1017.98 1017.70 1017.60 1017.33 1017.17 1017.06 1016.46 1015.23 1015.04 1015.01 1014.75 1014.56 1014.29 1014.25 1014.38 1014.23 1014.23 1014.44 1014.51 1014.49 1014.26 1014.03 1013.70 1013.26 1012.31 1011.86 1011.51
1023.03 1022.83 1022.62 1022.52 1022.26 1022.03 1021.78 1021.53 1021.19 1021.03 1020.71 1020.57 1020.29 1019.96 1019.87 1019.67 1019.19 1018.75 1018.35 1018.10 1017.79 1017.49 1017.29 1017.16 1017.31 1017.18 1016.35 1015.10 1015.13 1015.10 1015.10 1014.95 1014.54 1014.27 1014.15 1014.19 1014.29 1014.85 1014.78 1014.95 1015.07 1014.71 1014.49 1013.79 1012.86 1012.13 1011.88
1023.02 1022.86 1022.81 1022.62 1022.40 1022.08 1021.82 1021.60 1021.27 1021.03 1020.90 1020.67 1020.41 1020.08 1019.82 1019.57 1019.21 1018.77 1018.22 1017.81 1017.55 1017.39 1017.23 1017.16 1017.39 1017.67 1016.22 1015.99 1015.60 1015.24 1014.99 1014.97 1014.96 1014.77 1014.67 1014.74 1015.20 1015.46 1015.61 1015.68 1015.75 1015.37 1014.73 1014.02 1013.25 1012.52 1012.14
1022.97 1022.88 1022.84 1022.71 1022.52 1022.22 1021.92 1021.64 1021.32 1021.08 1020.89 1020.74 1020.37 1020.04 1019.75 1019.60 1019.28 1018.75 1018.25 1017.86 1018.39 1018.20 1017.84 1018.05 1017.95 1017.62 1016.78 1016.14 1015.70 1015.38 1015.11 1015.07 1015.27 1015.41 1015.81 1015.75 1016.23 1016.27 1016.03 1015.81 1015.66 1015.45 1014.96 1014.41 1013.62 1012.86 1012.64
1023.08 1022.85 1022.76 1022.66 1022.56 1022.30 1022.12 1021.70 1021.38 1021.10 1020.84 1020.70 1020.44 1020.09 1019.73 1019.45 1019.24 1018.77 1018.77 1019.46 1019.97 1020.10 1019.03 1017.94 1017.78 1017.42 1016.84 1016.51 1016.18 1015.60 1015.41 1015.68 1015.93 1016.38 1016.26 1016.44 1016.53 1016.18 1015.86 1015.72 1015.62 1015.43 1015.15 1014.73 1014.01 1013.46 1013.26
1023.13 1022.90 1022.60 1022.70 1022.49 1022.42 1022.18 1021.84 1021.44 1021.08 1020.78 1020.63 1020.37 1020.07 1019.84 1019.60 1019.25 1019.19 1019.76 1020.06 1019.94 1020.01 1019.81 1018.24 1017.41 1016.98 1016.63 1016.63 1016.49 1015.98 1015.83 1016.14 1016.40 1016.68 1016.87 1016.89 1016.51 1015.89 1015.71 1015.59 1015.52 1015.38 1015.25 1015.04 1014.83 1014.29 1014.01
1023.08 1022.99 1022.63 1022.61 1022.53 1022.42 1022.25 1021.99 1021.50 1021.10 1020.73 1020.57 1020.34 1020.10 1019.76 1019.36 1019.69 1020.12 1020.21 1020.12 1019.99 1020.03 1020.18 1018.81 1017.40 1016.64 1016.39 1016.35 1016.52 1016.03 1015.88 1016.36 1016.61 1016.94 1016.95 1016.90 1016.33 1016.04 1015.75 1015.62 1015.58 1015.53 1015.47 1015.44 1015.36 1015.35 1015.45
1023.03 1023.07 1022.73 1022.45 1022.63 1022.36 1022.20 1022.07 1021.63 1021.19 1020.87 1020.55 1020.39 1020.26 1019.82 1019.49 1020.10 1020.47 1020.65 1020.24 1019.95 1020.09 1020.28 1018.74 1017.36 1016.28 1016.47 1016.83 1016.78 1016.11 1016.12 1016.14 1016.64 1017.09 1017.49 1017.05 1016.60 1016.33 1016.04 1015.87 1015.73 1015.71 1015.68 1015.94 1016.06 1016.31 1016.33
1023.11 1023.04 1022.93 1022.52 1022.46 1022.34 1022.07 1022.10 1021.77 1021.39 1020.99 1020.62 1020.49 1020.29 1020.10 1020.05 1020.42 1020.43 1020.36 1020.22 1020.39 1020.63 1020.40 1019.06 1017.88 1017.39 1017.36 1017.05 1016.90 1016.50 1016.37 1016.48 1016.71 1017.08 1017.34 1017.15 1016.58 1016.45 1016.20 1015.96 1015.89 1015.92 1016.13 1016.57 1017.16 1017.50 1017.56
1023.07 1023.00 1022.89 1022.71 1022.50 1022.32 1022.13 1021.91 1021.82 1021.43 1021.13 1020.72 1020.42 1020.26 1020.14 1020.39 1020.70 1020.47 1020.36 1020.66 1021.24 1020.98 1020.89 1019.78 1019.03 1018.45 1018.31 1017.92 1017.34 1017.12 1017.15 1017.25 1017.84 1017.95 1018.08 1017.51 1016.82 1016.39 1016.21 1016.11 1016.02 1016.35 1017.10 1017.90 1018.45 1018.75 1018.18
1022.89 1023.01 1022.85 1022.76 1022.48 1022.39 1022.16 1021.93 1021.71 1021.44 1021.15 1020.83 1020.42 1020.28 1020.34 1020.32 1020.48 1020.64 1020.88 1020.97 1021.22 1021.21 1020.68 1020.04 1019.58 1019.07 1018.85 1018.28 1017.89 1017.67 1017.72 1017.99 1018.02 1018.42 1018.95 1018.80 1017.47 1016.72 1016.52 1016.49 1016.52 1016.93 1017.64 1018.42 1018.82 1019.21 1018.54
1022.74 1022.89 1022.85 1022.75 1022.52 1022.42 1022.25 1021.90 1021.79 1021.32 1021.00 1020.58 1020.43 1020.54 1020.64 1020.54 1020.43 1020.75 1021.12 1021.49 1021.18 1020.79 1020.46 1020.42 1019.92 1019.62 1019.22 1018.86 1018.81 1018.31 1018.13 1018.16 1018.22 1018.36 1018.85 1018.84 1017.98 1016.99 1016.85 1016.75 1017.12 1017.20 1017.58 1018.03 1018.72 1019.25 1018.93
1022.63 1022.71 1022.82 1022.73 1022.60 1022.46 1022.30 1021.94 1021.76 1021.41 1020.90 1020.63 1020.82 1020.76 1020.90 1020.72 1020.51 1020.79 1021.39 1021.33 1020.74 1020.30 1020.20 1020.32 1020.35 1020.05 1019.94 1019.27 1019.09 1018.79 1018.41 1018.08 1018.15 1018.33 1018.57 1018.80 1018.66 1017.58 1017.18 1017.09 1017.20 1017.38 1017.68 1018.08 1018.80 1019.18 1018.70
1022.45 1022.63 1022.68 1022.76 1022.68 1022.53 1022.32 1022.08 1021.73 1021.50 1021.01 1020.72 1021.09 1021.17 1020.96 1020.74 1020.70 1020.87 1021.40 1020.95 1020.33 1019.98 1020.07 1020.42 1020.37 1020.30 1020.12 1019.82 1019.32 1018.98 1018.62 1018.11 1018.20 1018.28 1018.50 1018.90 1019.18 1018.17 1017.80 1017.52 1017.43 1017.75 1017.73 1018.33 1018.63 1018.93 1018.52
1022.49 1022.57 1022.64 1022.69 1022.74 1022.60 1022.39 1022.21 1021.77 1021.55 1021.01 1020.74 1021.48 1021.71 1021.02 1020.94 1021.22 1021.35 1021.08 1020.21 1019.80 1019.86 1020.05 1020.20 1020.31 1020.25 1020.02 1019.88 1019.56 1019.03 1018.56 1018.18 1018.13 1018.35 1018.68 1018.95 1019.36 1019.05 1017.76 1017.49 1017.41 1017.56 1017.73 1018.12 1018.90 1018.81 1018.48
1022.37 1022.52 1022.68 1022.52 1022.75 1022.65 1022.44 1022.20 1021.97 1021.74 1021.62 1021.98 1021.97 1021.68 1021.13 1020.95 1021.23 1021.10 1020.50 1020.07 1019.72 1019.82 1019.96 1020.27 1020.23 1020.16 1019.90 1019.77 1019.66 1018.95 1018.45 1017.89 1018.08 1018.46 1018.72 1019.04 1019.39 1019.29 1018.11 1018.00 1017.62 1017.63 1017.65 1017.90 1018.35 1018.46 1018.04
1022.20 1022.41 1022.56 1022.51 1022.74 1022.70 1022.49 1022.23 1022.03 1021.89 1021.73 1022.05 1022.49 1022.21 1021.54 1021.50 1021.42 1020.83 1020.42 1019.85 1019.58 1019.43 1019.53 1019.70 1019.99 1019.99 1020.16 1019.83 1019.43 1019.01 1018.56 1017.99 1018.19 1018.46 1018.73 1019.11 1019.60 1019.50 1019.15 1018.16 1017.73 1017.70 1017.42 1017.66 1018.16 1018.48 1017.45
1021.93 1022.18 1022.43 1022.27 1022.61 1022.55 1022.45 1022.38 1022.08 1021.97 1021.80 1022.14 1022.76 1022.57 1022.36 1021.85 1021.31 1020.83 1020.30 1019.93 1019.61 1019.51 1019.56 1019.57 1019.76 1019.75 1019.82 1019.85 1019.44 1019.16 1018.55 1018.34 1018.41 1018.62 1019.05 1019.42 1019.86 1019.59 1018.72 1017.94 1017.75 1017.20 1016.93 1017.24 1017.56 1017.13 1017.08
1021.61 1021.94 1022.11 1022.10 1022.32 1022.40 1022.41 1022.37 1022.13 1022.05 1021.80 1022.26 1022.99 1022.92 1022.76 1022.09 1021.35 1020.93 1020.37 1019.72 1019.29 1018.87 1019.13 1019.26 1019.54 1019.03 1019.35 1019.49 1018.65 1018.50 1018.51 1018.59 1018.67 1019.16 1019.49 1019.86 1019.77 1019.69 1018.87 1017.58 1017.18 1016.65 1015.92 1015.90 1016.23 1016.40 1016.02
1021.50 1021.56 1021.75 1021.91 1022.04 1022.11 1022.55 1021.97 1022.25 1022.10 1021.86 1022.56 1023.07 1022.95 1022.74 1022.25 1021.82 1021.50 1020.34 1019.35 1018.86 1018.84 1018.05 1018.19 1018.44 1018.90 1019.12 1018.44 1018.25 1018.05 1017.99 1018.18 1018.30 1018.91 1019.60 1020.09 1020.14 1020.03 1019.00 1017.74 1016.96 1015.60 1014.03 1014.52 1014.72 1014.61 1014.41
1021.16 1021.29 1021.50 1021.75 1021.64 1022.07 1022.24 1021.90 1022.09 1022.15 1022.30 1023.06 1023.41 1023.42 1023.38 1022.88 1022.32 1021.37 1020.29 1019.94 1019.30 1018.90 1018.72 1018.19 1018.57 1018.54 1017.78 1017.73 1017.87 1018.20 1018.31 1018.29 1018.54 1018.65 1019.09 1019.63 1020.26 1020.15 1019.21 1018.18 1016.51 1013.61 1013.03 1013.08 1013.44 1013.33 1013.41
1020.94 1020.84 1021.26 1021.36 1021.56 1021.89 1021.74 1021.83 1021.86 1021.94 1022.34 1022.81 1023.32 1023.62 1023.66 1023.10 1022.17 1021.17 1020.56 1019.98 1019.32 1018.89 1018.78 1018.32 1017.97 1017.78 1017.58 1018.05 1018.69 1018.70 1018.59 1018.52 1018.41 1018.75 1019.13 1019.50 1019.94 1020.06 1019.51 1018.41 1015.52 1013.09 1012.76 1012.72 1012.96 1012.58 1012.46
1020.46 1020.70 1020.83 1021.49 1021.50 1021.52 1021.58 1021.69 1021.82 1021.85 1021.95 1022.45 1022.93 1023.22 1023.69 1023.78 1021.96 1021.07 1020.61 1019.92 1019.66 1019.14 1019.03 1018.23 1018.03 1018.08 1018.22 1018.76 1019.37 1019.57 1019.37 1018.63 1018.59 1018.95 1019.23 1019.54 1019.72 1019.99 1019.67 1018.38 1015.93 1012.94 1012.33 1012.27 1012.51 1012.38 1011.90
1020.34 1020.60 1020.86 1021.11 1021.11 1021.34 1021.42 1021.50 1021.58 1021.70 1021.71 1022.19 1022.27 1022.47 1023.14 1023.40 1021.73 1021.15 1020.66 1020.02 1019.31 1019.18 1019.16 1018.70 1018.70 1018.86 1018.66 1019.36 1019.75 1019.62 1019.09 1018.44 1018.32 1018.29 1018.89 1019.45 1019.60 1019.25 1018.55 1017.34 1014.87 1012.37 1012.21 1012.26 1012.54 1012.02 1011.50
1020.50 1020.86 1021.10 1021.32 1021.47 1021.67 1021.74 1021.73 1021.77 1021.76 1021.80 1021.84 1021.50 1021.66 1021.98 1021.61 1020.41 1020.14 1019.89 1019.75 1019.00 1018.91 1019.11 1019.13 1019.23 1018.98 1019.25 1019.61 1019.56 1019.00 1018.74 1017.64 1017.33 1016.56 1016.75 1017.07 1017.67 1017.60 1017.23 1016.26 1013.80 1011.38 1012.24 1012.11 1010.83 1010.84 1010.81
1021.11 1021.27 1021.55 1021.73 1021.89 1021.84 1021.88 1022.03 1022.10 1022.12 1022.04 1021.87 1021.56 1021.30 1021.37 1021.19 1018.98 1018.26 1018.02 1017.79 1018.03 1018.11 1018.75 1018.99 1018.68 1018.41 1017.99 1018.38 1018.64 1018.39 1017.92 1017.43 1016.66 1015.98 1015.39 1015.12 1013.88 1013.93 1013.91 1012.03 1010.70 1010.61 1009.93 1009.85 1010.21 1010.50 1010.79
Thickness
5632 5632 5632 5632 5633 5633 5632 5632 5633 5633 5631 5628 5626 5623 5618 5613 5610 5606 5602 5596 5589 5580 5569 5558 5550 5545 5541 5531 5529 5539 5539 5540 5541 5541 5539 5541 5544 5547 5549 5559 5571 5583 5597 5613 5622 5636 5646
5632 5631 5631 5632 5632 5632 5632 5632 5633 5633 5631 5628 5626 5622 5619 5614 5610 5605 5601 5596 5590 5581 5571 5560 5552 5546 5538 5527 5540 5539 5540 5542 5540 5539 5537 5541 5542 5547 5551 5558 5566 5578 5591 5601 5616 5627 5637
5632 5631 5631 5632 5632 5633 5633 5633 5632 5632 5631 5629 5625 5622 5618 5616 5611 5606 5601 5596 5591 5583 5572 5563 5554 5548 5538 5535 5542 5541 5542 5542 5542 5540 5539 5542 5544 5546 5551 5555 5564 5576 5584 5599 5610 5622 5628
5632 5632 5631 5631 5632 5632 5633 5633 5632 5630 5630 5628 5625 5621 5618 5615 5613 5609 5603 5597 5592 5586 5576 5567 5558 5550 5541 5550 5545 5542 5543 5544 5546 5545 5542 5545 5547 5546 5550 5555 5562 5570 5573 5575 5600 5613 5625
5631 5631 5631 5631 5632 5632 5633 5632 5632 5630 5629 5627 5625 5623 5618 5613 5612 5609 5605 5599 5594 5589 5582 5573 5562 5551 5545 5555 5546 5545 5543 5542 5544 5547 5546 5548 5547 5541 5546 5545 5545 5551 5558 5571 5589 5606 5616
5630 5630 5629 5630 5630 5631 5632 5631 5631 5629 5627 5626 5624 5622 5618 5615 5611 5608 5606 5603 5597 5591 5585 5578 5565 5552 5555 5547 5548 5548 5548 5545 5543 5543 5543 5541 5532 5532 5531 5535 5535 5549 5561 5570 5581 5599 5609
5629 5629 5628 5628 5629 5629 5629 5630 5630 5629 5627 5625 5624 5622 5619 5614 5611 5609 5608 5603 5591 5587 5582 5574 5564 5556 5553 5554 5553 5551 5550 5546 5542 5538 5531 5533 5520 5524 5535 5541 5545 5550 5557 5563 5577 5592 5600
5626 5627 5627 5627 5627 5627 5626 5628 5628 5628 5627 5625 5623 5622 5620 5616 5612 5610 5606 5591 5582 5575 5573 5576 5568 5562 5559 5556 5548 5552 5552 5543 5538 5529 5532 5527 5524 5533 5537 5540 5543 5548 5553 5559 5569 5581 5590
5623 5624 5626 5625 5624 5625 5625 5625 5627 5627 5627 5625 5623 5622 5619 5615 5613 5608 5598 5590 5584 5577 5568 5576 5575 5569 5565 5560 5551 5550 5551 5543 5537 5532 5528 5528 5534 5538 5541 5543 5543 5547 5550 5556 5562 5568 5579
5618 5620 5622 5622 5622 5622 5622 5622 5624 5625 5626 5624 5623 5621 5620 5619 5611 5602 5596 5591 5586 5579 5554 5571 5574 5575 5572 5566 5555 5559 5555 5547 5540 5535 5532 5532 5538 5537 5541 5542 5541 5542 5549 5552 5558 5557 5553
5614 5615 5618 5620 5618 5620 5620 5619 5621 5622 5623 5623 5621 5618 5619 5617 5609 5600 5595 5592 5588 5579 5532 5577 5574 5583 5573 5565 5560 5562 5558 5553 5542 5538 5534 5536 5536 5535 5538 5540 5540 5540 5544 5545 5551 5546 5551
5609 5611 5613 5617 5616 5617 5618 5616 5618 5619 5620 5621 5618 5617 5615 5613 5607 5603 5598 5593 5586 5561 5538 5568 5576 5569 5564 5565 5564 5562 5559 5554 5550 5542 5536 5535 5540 5538 5538 5538 5539 5540 5542 5535 5522 5526 5517
5605 5606 5609 5611 5613 5614 5615 5615 5614 5615 5616 5617 5617 5615 5614 5609 5603 5601 5598 5588 5562 5549 5571 5574 5568 5566 5559 5559 5560 5560 5553 5545 5537 5525 5520 5528 5541 5541 5541 5539 5540 5533 5522 5500 5515 5499 5527
5601 5601 5604 5606 5608 5609 5611 5611 5611 5613 5613 5614 5615 5614 5610 5608 5604 5599 5592 5586 5572 5580 5571 5573 5570 5565 5564 5564 5563 5557 5551 5540 5543 5535 5512 5510 5514 5542 5539 5538 5535 5532 5525 5501 5522 5506 5519
5596 5596 5598 5600 5603 5604 5605 5607 5607 5609 5611 5613 5612 5610 5606 5605 5602 5597 5586 5557 5579 5578 5579 5569 5569 5569 5563 5565 5557 5554 5552 5545 5544 5541 5534 5523 5528 5540 5537 5537 5532 5532 5526 5525 5513 5506 5509
5590 5592 5592 5594 5596 5598 5599 5601 5602 5604 5606 5608 5605 5604 5602 5601 5600 5593 5582 5586 5583 5583 5579 5573 5568 5567 5561 5560 5555 5549 5550 5553 5548 5543 5537 5534 5518 5537 5537 5535 5532 5531 5528 5523 5497 5525 5526
5584 5585 5586 5586 5588 5590 5592 5595 5596 5597 5600 5601 5597 5601 5598 5597 5595 5587 5582 5580 5583 5583 5580 5571 5569 5563 5558 5557 5557 5553 5554 5555 5546 5544 5537 5533 5523 5533 5534 5531 5530 5522 5521 5517 5509 5505 5523
5576 5578 5580 5580 5580 5582 5585 5586 5589 5590 5594 5595 5588 5592 5593 5591 5589 5560 5583 5584 5589 5583 5577 5572 5567 5562 5560 5558 5554 5555 5554 5553 5549 5543 5538 5531 5514 5511 5533 5533 5531 5529 5528 5515 5510 5524 5497
5568 5569 5569 5573 5572 5574 5577 5579 5581 5582 5582 5579 5581 5580 5586 5586 5586 5580 5582 5586 5583 5579 5575 5567 5564 5560 5560 5559 5554 5553 5557 5559 5549 5542 5539 5531 5518 5508 5532 5531 5530 5529 5526 5522 5505 5497 5507
5559 5559 5562 5564 5563 5565 5568 5570 5573 5573 5574 5572 5569 5573 5577 5571 5566 5583 5584 5585 5582 5575 5576 5569 5565 5562 5557 5555 5549 5553 5555 5559 5550 5545 5539 5530 5516 5525 5520 5535 5531 5527 5525 5517 5513 5482 5511
5551 5551 5553 5555 5555 5556 5558 5560 5563 5564 5565 5563 5556 5565 5563 5571 5576 5574 5577 5578 5577 5573 5566 5563 5564 5552 5550 5552 5553 5544 5550 5552 5548 5544 5532 5524 5516 5506 5514 5518 5519 5522 5524 5513 5498 5517 5517
5545 5544 5544 5546 5546 5546 5548 5549 5551 5553 5555 5552 5550 5553 5546 5550 5558 5564 5567 5572 5570 5572 5564 5564 5555 5561 5540 5542 5552 5553 5550 5547 5544 5533 5525 5512 5516 5512 5517 5525 5517 5516 5520 5516 5513 5514 5505
5536 5536 5536 5536 5536 5536 5534 5540 5539 5542 5545 5538 5534 5535 5537 5545 5546 5549 5556 5566 5568 5564 5570 5567 5558 5552 5539 5541 5540 5542 5543 5542 5541 5534 5515 5509 5501 5502 5512 5515 5511 5527 5543 5522 5524 5517 5525
5527 5527 5526 5524 5526 5523 5524 5528 5528 5530 5531 5526 5523 5521 5522 5530 5529 5539 5555 5549 5556 5551 5553 5561 5547 5545 5553 5546 5542 5535 5526 5521 5519 5517 5514 5500 5494 5491 5495 5500 5519 5552 5548 5546 5539 5539 5527
5517 5518 5515 5514 5512 5512 5515 5516 5517 5520 5519 5516 5511 5509 5504 5506 5516 5530 5533 5532 5536 5540 5535 5542 5546 5541 5536 5535 5519 5515 5519 5528 5523 5514 5503 5499 5495 5490 5496 5489 5524 5553 5545 5541 5542 5546 5539
5510 5508 5508 5503 5504 5504 5506 5505 5505 5507 5508 5505 5501 5499 5491 5487 5508 5518 5519 5527 5520 5520 5519 5527 5528 5520 5519 5506 5503 5501 5506 5518 5515 5504 5493 5487 5484 5483 5468 5481 5511 5549 5541 5535 5535 5523 5540
5501 5500 5498 5496 5498 5496 5497 5497 5497 5496 5496 5494 5495 5492 5482 5475 5492 5499 5499 5506 5513 5510 5500 5505 5510 5503 5505 5490 5489 5484 5488 5498 5502 5501 5478 5477 5469 5475 5474 5468 5492 5535 5530 5525 5524 5531 5532
5492 5488 5487 5485 5485 5484 5484 5483 5483 5484 5485 5485 5487 5484 5480 5482 5492 5494 5494 5490 5497 5496 5497 5492 5487 5486 5480 5481 5480 5483 5466 5486 5494 5503 5489 5493 5477 5471 5460 5462 5484 5527 5516 5520 5532 5526 5529
5476 5474 5472 5470 5470 5472 5471 5469 5469 5468 5470 5470 5474 5475 5471 5473 5497 5501 5503 5504 5495 5491 5481 5474 5479 5479 5483 5476 5467 5466 5474 5461 5477 5488 5492 5495 5519 5512 5501 5507 5533 5520 5537 5529 5521 5522 5517